map of IMP home
IMP - Airport
Location
City:  Imperatriz, Maranhão, Brazil
ICAO:SBIZ
IATA:IMP

Details
Type:Airport (Aerodrome, Airfield)
Latitude:5°31'53"S (-5.531291)
Longitude:47°27'36"W (-47.460049)
Datum:WGS 1984
Elevation:431 ft (131 m)
Variation:21.00°W (WMM2015v2 magnetic declination)
-0.03° annual change
Runways:1
Longest:5899 × 148 ft (1798 × 45 m), paved

Time
Time Zone:UTC-3
Local Time:

Weather
METAR:SBIZ 041300Z 06004KT 9999 BKN020 BKN100 30/24 Q1012
TAF:SBIZ 041000Z 0412/0424 00000KT 9999 FEW010 TN30/0413Z TX32/0417Z
BECMG 0414/0416 SCT030
BECMG 0416/0418 21005KT
BECMG 0417/0419 36005KT FEW020 FEW025TCU
RMK PFF

Related Locations
Nearby:
Farthest:ROR: 12253 mi / 19720 km
Babelthuap Island [Babelthuap/Koror Airport], PW

Find:

   beyond  
but within

Other Information
Maps:
NOTAMs:
Links:
Sources:

  
  • flag of Brazil
  • flag of Maranhão
  

Sectional Chart

Flight Planning
at skyvector.com

Satellite Image

Google Maps Satellite view

 

Copyright © 2004-2019 Karl L. Swartz. All rights reserved.
The Great Circle Mapper name and logo are trademarks of the Great Circle Mapper.
All other trademarks mentioned herein belong to their respective owners.
Please see credits for attibutions and further copyright information.

  Follow gcmap on Facebook Follow gcmap on Twitter GCmap on LinkedIn

hCard Microformat

Geo Microformat